カタログに戻る

FENGYUN 1C DEB

LostPO
NORAD 36240·DEBRIS·🇨🇳 China

打ち上げ May 10, 1999 から Taiyuan Satellite Launch Center

Loading…

次のパス (今後24時間)

TLE

古いSource: Space-Track

元期: Jan 19, 2011, 00:56 UTC

1 36240U 99025DVR 11019.03930629 +.00002692 +00000-0 +74312-3 0  9993
2 36240 099.3841 106.8314 0365396 101.4675 257.3222 14.14911744114690

AllMySatでFENGYUN 1C DEBをリアルタイム追跡

Download on the App Store